Regional Weather Roundup
Issued by NWS

Home | Current Version | Previous Version | Text Only | Print | Product List | Glossary On
Versions: 1 2 3 4 5 6 7 8 9 10 11 12 13 14 15 16 17 18 19 20 21 22 23 24 25 26 27 28 29 30 31 32 33 34 35 36 37 38 39 40 41 42 43 44 45 46 47 48 49 50
000
ASUS44 KBMX 041710
RWRAL

ALABAMA REGIONAL WEATHER ROUNDUP
NATIONAL WEATHER SERVICE BIRMINGHAM AL
1200 PM CDT MON MAY 04 2015

NOTE: "FAIR" INDICATES FEW OR NO CLOUDS BELOW 12,000 FEET
WITH NO SIGNIFICANT WEATHER AND/OR OBSTRUCTIONS TO VISIBILITY.

THE REMARK "TC" DENOTES TEMPERATURE IN DEGREES CELSIUS.

ALZ001>011-014-016>018-020-041800-
NORTH ALABAMA

CITY           SKY/WX    TMP DP  RH WIND       PRES   REMARKS
MUSCLE SHOALS  MOSUNNY   80  54  40 SW6       30.28F
HUNTSVILLE     MOSUNNY   80  55  42 NW5       30.29F
DECATUR          N/A     78  60  53 MISG      30.29F
HALEYVILLE       N/A     78  52  40 MISG      30.32S
GADSDEN        SUNNY     79  54  41 S6        30.29F
$$

ALZ012-013-022-023-030>036-040>044-041800-
WEST CENTRAL ALABAMA

CITY           SKY/WX    TMP DP  RH WIND       PRES   REMARKS
TUSCALOOSA     SUNNY     80  56  43 VRB6      30.27F
$$

ALZ015-024>027-033>036-040>044-041800-
CENTRAL ALABAMA

CITY           SKY/WX    TMP DP  RH WIND       PRES   REMARKS
BIRMINGHAM     PTSUNNY   77  53  43 VRB5      30.31S
MONTGOMERY     SUNNY     80  57  45 E6        30.29S
SHELBY CO ARPT SUNNY     77  54  44 SE3       30.29S
MAXWELL AFB    MOSUNNY   80  58  48 VRB3      30.28F
GREENVILLE     FAIR      80  55  42 S8        30.27F
$$

ALZ019-021-028-029-037-038-045>048-041800-
EAST CENTRAL ALABAMA

CITY           SKY/WX    TMP DP  RH WIND       PRES   REMARKS
ANNISTON       MOSUNNY   78  55  44 VRB3      30.30F
ALEXANDER CITY SUNNY     77  48  36 CALM      30.30F
AUBURN         MOSUNNY   75  52  43 SE5       30.31F
$$

ALZ051>064-041800-
SOUTHWEST ALABAMA

CITY           SKY/WX    TMP DP  RH WIND       PRES   REMARKS
MOBILE         PTSUNNY   80  60  50 SE17G24   30.24S
BROOKLEY FIELD MOSUNNY   81  65  58 E10       30.24F
EVERGREEN      LGT RAIN  81  53  37 SE12G18   30.26F
$$

ALZ049-050-065>069-041800-
SOUTHEAST ALABAMA

CITY           SKY/WX    TMP DP  RH WIND       PRES   REMARKS
DOTHAN         SUNNY     80  52  37 E8        30.31S
OZARK          MOSUNNY   79  52  38 NE9       30.27S
TROY           MOSUNNY   80  57  45 VRB6      30.29F
EUFAULA        FAIR      80  59  48 CALM      30.28F
$$



USA.gov is the U.S. government's official web portal to all federal, state and local government web resources and services.